[[{"header":{"parameterUnit":"m.s-1","parameterCategory":2,"la1":30.2991,"la2":30.254,"lo1":-89.0895,"lo2":-89.0444,"dy":0.0017,"dx":0.0017,"nx":28,"ny":28,"refTime":"2025-01-12T03:00:00:Z","depth":"0","parameterNumber":2,"parameterNumberName":"U-component_of_CURRENTS"},"data":[0,0,0,0,0,0,0,0,0,0,0,0,0,0,0,0,0,0,0,0,0,0,0,0,0,0,0,0,0,0,0,0,0,0,0,0,0,0,0,0,0,0,0,0,0,0,0,0,0,0,0,0,0,0,0,0,0,0,-0.2635,-0.2635,0,-0.2644,-0.2644,-0.2644,-0.2615,-0.2614,-0.2613,-0.2613,-0.2578,-0.2578,-0.2578,0,0,0,0,0,0,0,0,0,0,0,0,0,-0.2576,-0.2577,-0.2635,-0.2635,-0.2635,-0.2644,-0.2644,-0.2644,-0.2615,-0.2614,-0.2613,-0.2612,-0.2579,-0.2578,-0.2578,0,0,0,0,0,0,0,0,0,0,0,0,0,-0.2593,-0.2577,-0.2635,-0.2624,-0.2623,-0.2644,-0.2644,-0.2644,-0.2615,-0.2614,-0.2613,-0.2612,-0.2579,-0.2578,-0.2578,-0.2595,0,0,-0.2577,-0.2576,0,0,0,0,0,0,0,0,-0.2592,-0.2595,-0.2625,-0.2625,-0.2624,-0.2629,-0.2611,-0.2627,-0.2615,-0.2615,-0.2613,-0.2612,-0.2594,-0.2592,-0.2593,-0.2594,-0.2592,-0.2576,-0.2576,-0.2576,-0.2576,0,0,0,0,0,0,0,-0.2591,-0.2594,-0.2636,-0.2625,-0.2625,-0.2613,-0.2614,-0.2614,-0.2607,-0.2615,-0.2614,-0.2619,-0.2593,-0.2594,-0.2592,-0.2592,-0.2576,-0.2576,-0.2576,-0.2576,-0.2605,-0.2606,0,0,0,0,0,0,-0.2597,-0.2593,-0.2636,-0.2637,-0.2608,-0.2615,-0.2617,-0.2627,-0.2608,-0.2606,-0.262,-0.2618,-0.2595,-0.2593,-0.2591,-0.2609,-0.2576,-0.2576,-0.2575,-0.2604,-0.2606,-0.2607,0,0,0,0,0,0,-0.2596,-0.2601,-0.2635,-0.2616,-0.262,-0.2618,-0.2629,-0.2627,-0.2626,-0.2613,-0.2608,-0.262,-0.2594,-0.2591,-0.2593,-0.2608,-0.2575,-0.2575,-0.2603,-0.2605,-0.2606,-0.2647,0,0,0,0,0,0,-0.2594,-0.26,-0.2606,-0.2617,-0.2622,-0.2655,-0.263,-0.2628,-0.2632,-0.2629,-0.2612,-0.2608,-0.2593,-0.2594,-0.2593,-0.2606,-0.2575,-0.2602,-0.2604,-0.2606,-0.2644,-0.265,-0.2654,0,0,0,0,0,-0.2592,-0.2609,-0.2606,-0.2611,-0.2631,-0.2656,-0.2657,-0.2649,-0.2633,-0.2641,-0.2627,-0.2608,-0.2606,-0.2595,-0.2593,-0.2607,-0.2601,-0.2603,-0.2606,-0.2642,-0.2649,-0.2654,0,0,0,0,0,0,-0.2587,-0.2608,-0.2605,-0.2627,-0.2642,-0.2652,-0.2658,-0.2653,-0.265,-0.2641,-0.2621,-0.2617,-0.2625,-0.2614,-0.2602,-0.2622,-0.2601,-0.2603,-0.2629,-0.2635,-0.264,-0.2646,-0.2574,0,0,0,0,0,-0.259,-0.2603,-0.2625,-0.264,-0.265,-0.2653,-0.2659,-0.2659,-0.266,-0.2657,-0.2645,-0.2635,-0.2636,-0.2633,-0.2631,-0.2642,-0.263,-0.2651,-0.2656,-0.266,-0.2665,-0.2661,-0.2666,-0.2615,-0.2615,-0.2614,0,0,-0.2589,-0.2604,-0.261,-0.2639,-0.2646,-0.267,-0.2654,-0.2671,-0.2686,-0.2654,-0.2663,-0.2653,-0.2643,-0.2655,-0.2658,-0.2645,-0.267,-0.2663,-0.2667,-0.267,-0.2664,-0.2669,-0.2673,-0.2616,-0.2616,-0.2616,0,0,-0.2602,-0.2612,-0.2629,-0.2649,-0.2671,-0.268,-0.2687,-0.2702,-0.2701,-0.2716,-0.2696,-0.2696,-0.2694,-0.2692,-0.269,-0.2725,-0.2697,-0.2723,-0.2751,-0.2747,-0.2751,-0.2754,-0.2747,-0.275,-0.2724,-0.2724,-0.2724,0,-0.26,-0.2625,-0.2638,-0.2666,-0.2681,-0.2687,-0.2713,-0.2724,-0.2734,-0.2739,-0.2723,-0.2726,-0.2715,-0.2731,-0.2741,-0.2736,-0.2725,-0.2726,-0.2753,-0.2756,-0.2758,-0.275,-0.2753,-0.2726,-0.2726,-0.2726,-0.2725,0,-0.2626,-0.2649,-0.2664,-0.2697,-0.272,-0.2742,-0.2767,-0.2782,-0.2779,-0.2785,-0.2797,-0.2785,-0.2783,-0.2784,-0.2771,-0.279,-0.2774,-0.2759,-0.2735,-0.2766,-0.2756,-0.2757,-0.2729,-0.2729,-0.2728,-0.2727,0,0,-0.2606,-0.2669,-0.2671,-0.2691,-0.2737,-0.2756,-0.2794,-0.2824,-0.284,-0.2845,-0.2861,-0.2863,-0.2847,-0.2845,-0.283,-0.2829,-0.2838,-0.2803,-0.2802,-0.2793,-0.2826,-0.2802,-0.28,-0.2823,-0.2823,-0.2824,-0.2812,0,-0.2616,-0.2667,-0.2699,-0.2742,-0.2767,-0.2798,-0.2833,-0.2862,-0.2876,-0.2894,-0.2889,-0.2895,-0.2874,-0.2868,-0.2867,-0.2847,-0.2843,-0.2842,-0.2801,-0.28,-0.2771,-0.2802,-0.2722,-0.2704,-0.2813,-0.2813,-0.2813,0,-0.2619,-0.2655,-0.27,-0.276,-0.2775,-0.2803,-0.2849,-0.2882,-0.292,-0.2932,-0.2942,-0.2935,-0.2942,-0.2912,-0.2898,-0.2896,-0.2865,-0.2847,-0.2846,-0.281,-0.2778,-0.2691,-0.2702,-0.2701,-0.2815,-0.2815,-0.2815,0,-0.2577,-0.2649,-0.2679,-0.2701,-0.2776,-0.2797,-0.2831,-0.2882,-0.2909,-0.2946,-0.2964,-0.2971,-0.2968,-0.2945,-0.2912,-0.2901,-0.2891,-0.2867,-0.2818,-0.2816,-0.2734,-0.2724,-0.2735,-0.2852,-0.2852,-0.2852,-0.2852,0,-0.2564,-0.2585,-0.266,-0.2675,-0.2707,-0.2772,-0.2807,-0.2846,-0.2906,-0.2935,-0.2967,-0.2985,-0.2974,-0.2968,-0.293,-0.2886,-0.2903,-0.2831,-0.2815,-0.2747,-0.2739,-0.2722,-0.272,-0.2852,-0.2852,-0.2852,-0.2852,0,-0.2499,-0.2554,-0.2587,-0.2664,-0.2684,-0.27,-0.278,-0.2809,-0.2879,-0.292,-0.2932,-0.299,-0.2988,-0.2977,-0.2944,-0.2904,-0.2819,-0.284,-0.2765,-0.274,-0.2688,-0.269,-0.2618,-0.2552,-0.2783,-0.2783,-0.2782,0,-0.2467,-0.2478,-0.2549,-0.2562,-0.259,-0.2635,-0.2667,-0.2765,-0.2803,-0.2915,-0.2925,-0.2965,-0.2976,-0.2946,-0.2898,-0.2845,-0.2789,-0.2719,-0.2685,-0.2686,-0.2676,-0.2635,-0.258,-0.2591,-0.2589,-0.2587,-0.2586,0,-0.2386,-0.241,-0.2433,-0.2465,-0.2495,-0.2537,-0.2595,-0.2631,-0.275,-0.2801,-0.2864,-0.2893,-0.2919,-0.2858,-0.2816,-0.2752,-0.2657,-0.2683,-0.2696,-0.2544,-0.2484,-0.2412,-0.2606,-0.2571,-0.2573,-0.2574,-0.2575,-0.2575,-0.23,-0.2293,-0.2321,-0.2337,-0.2375,-0.2403,-0.2395,-0.2493,-0.2542,-0.2613,-0.273,-0.2778,-0.2792,-0.2739,-0.269,-0.2591,-0.2573,-0.2497,-0.2504,-0.2467,-0.2389,-0.2559,-0.2502,-0.2503,-0.2504,-0.2504,-0.2505,0,-0.2177,-0.218,-0.2192,-0.2202,-0.2187,-0.2256,-0.2309,-0.2288,-0.2305,-0.2462,-0.2514,-0.264,-0.2586,-0.2605,-0.2547,-0.2448,-0.2353,-0.2366,-0.2294,-0.2249,-0.2412,-0.2393,-0.2293,-0.2293,-0.2293,-0.2293,-0.2293,-0.2293,-0.2109,-0.2065,-0.2072,-0.1994,-0.2003,-0.1934,-0.1931,-0.1939,-0.2014,-0.2127,-0.2288,-0.2461,-0.249,-0.2612,-0.2492,-0.2376,-0.2284,-0.2193,-0.22,-0.2346,-0.2359,-0.2371,-0.2354,-0.2248,-0.2248,-0.1964,-0.1962,-0.1961]},{"header":{"parameterUnit":"m.s-1","parameterCategory":2,"la1":30.2991,"la2":30.254,"lo1":-89.0895,"lo2":-89.0444,"dy":0.0017,"dx":0.0017,"nx":28,"ny":28,"refTime":"2025-01-12T03:00:00:Z","depth":"0","parameterNumber":3,"parameterNumberName":"V-component_of_CURRENTS"},"data":[0,0,0,0,0,0,0,0,0,0,0,0,0,0,0,0,0,0,0,0,0,0,0,0,0,0,0,0,0,0,0,0,0,0,0,0,0,0,0,0,0,0,0,0,0,0,0,0,0,0,0,0,0,0,0,0,0,0,-0.0481,-0.048,0,-0.0382,-0.038,-0.0379,-0.0317,-0.0317,-0.0317,-0.0317,-0.0205,-0.0202,-0.02,0,0,0,0,0,0,0,0,0,0,0,0,0,-0.0562,-0.0561,-0.0481,-0.048,-0.0479,-0.0382,-0.038,-0.0379,-0.0317,-0.0317,-0.0317,-0.0316,-0.0206,-0.0203,-0.0199,0,0,0,0,0,0,0,0,0,0,0,0,0,-0.0501,-0.0561,-0.0482,-0.0437,-0.0433,-0.0382,-0.038,-0.0378,-0.0317,-0.0317,-0.0317,-0.0316,-0.0207,-0.0203,-0.0199,-0.0181,0,0,-0.0186,-0.0185,0,0,0,0,0,0,0,0,-0.0504,-0.0498,-0.0445,-0.044,-0.0435,-0.0362,-0.0368,-0.0312,-0.0317,-0.036,-0.0317,-0.0316,-0.0258,-0.0249,-0.023,-0.0175,-0.0171,-0.0186,-0.0184,-0.0182,-0.0181,0,0,0,0,0,0,0,-0.0509,-0.0501,-0.0441,-0.0444,-0.0438,-0.0403,-0.0395,-0.0357,-0.0311,-0.0356,-0.0352,-0.0342,-0.0254,-0.0234,-0.0227,-0.0169,-0.0186,-0.0183,-0.018,-0.0178,-0.0088,-0.0088,0,0,0,0,0,0,-0.0526,-0.0506,-0.0444,-0.0438,-0.047,-0.0403,-0.0393,-0.0385,-0.0311,-0.03,-0.0343,-0.034,-0.0241,-0.0232,-0.0223,-0.0195,-0.0182,-0.0178,-0.0176,-0.0087,-0.0088,-0.0088,0,0,0,0,0,0,-0.0528,-0.0522,-0.0448,-0.047,-0.0458,-0.0402,-0.0394,-0.0383,-0.0363,-0.0302,-0.029,-0.0334,-0.0241,-0.0229,-0.019,-0.0191,-0.0176,-0.0172,-0.0087,-0.0088,-0.0088,-0.0141,0,0,0,0,0,0,-0.0531,-0.0523,-0.0526,-0.0471,-0.0458,-0.0424,-0.0394,-0.0382,-0.0359,-0.0354,-0.029,-0.0279,-0.0239,-0.0197,-0.0186,-0.0185,-0.0169,-0.0087,-0.0087,-0.0088,-0.0139,-0.0143,-0.0146,0,0,0,0,0,-0.0534,-0.054,-0.0527,-0.0519,-0.0463,-0.0425,-0.0415,-0.0372,-0.0359,-0.0353,-0.0309,-0.0281,-0.019,-0.0193,-0.0181,-0.0178,-0.0087,-0.0087,-0.0088,-0.0138,-0.0142,-0.0146,0,0,0,0,0,0,-0.0575,-0.0533,-0.0517,-0.0509,-0.0473,-0.0415,-0.0407,-0.0379,-0.0339,-0.0336,-0.0279,-0.0265,-0.0232,-0.0199,-0.0205,-0.0153,-0.0135,-0.0133,-0.0178,-0.0181,-0.0185,-0.0199,-0.0166,0,0,0,0,0,-0.0587,-0.0582,-0.0533,-0.0528,-0.0514,-0.0463,-0.0443,-0.0415,-0.0372,-0.0354,-0.0308,-0.0263,-0.0223,-0.0199,-0.016,-0.013,-0.0096,-0.0121,-0.0125,-0.0128,-0.0131,-0.0082,-0.0081,-0.0088,-0.0088,-0.0088,0,0,-0.0601,-0.0579,-0.0575,-0.0537,-0.0507,-0.0491,-0.045,-0.0426,-0.0409,-0.0349,-0.0316,-0.0274,-0.0219,-0.0185,-0.0168,-0.0157,-0.0108,-0.0128,-0.0132,-0.0133,-0.0082,-0.0081,-0.0081,-0.0088,-0.0088,-0.0088,0,0,-0.0632,-0.0609,-0.0615,-0.0589,-0.0552,-0.0517,-0.0515,-0.046,-0.0432,-0.0397,-0.035,-0.0309,-0.0249,-0.0205,-0.0176,-0.0176,-0.0131,-0.0167,-0.019,-0.0143,-0.0142,-0.0141,-0.0099,-0.0093,-0.0166,-0.0166,-0.0166,0,-0.0652,-0.0652,-0.0611,-0.0608,-0.0593,-0.0535,-0.0535,-0.0496,-0.0435,-0.0413,-0.0397,-0.0301,-0.0257,-0.0207,-0.0207,-0.0183,-0.0153,-0.018,-0.0148,-0.0146,-0.0143,-0.0101,-0.0094,-0.0168,-0.0168,-0.0168,-0.0167,0,-0.0683,-0.0682,-0.0683,-0.0662,-0.0638,-0.0629,-0.0574,-0.0546,-0.0509,-0.0465,-0.0411,-0.0344,-0.0287,-0.0267,-0.0236,-0.0197,-0.018,-0.0161,-0.014,-0.0146,-0.01,-0.0093,-0.0172,-0.0171,-0.017,-0.017,0,0,-0.073,-0.0712,-0.0712,-0.0715,-0.0667,-0.0654,-0.0624,-0.0578,-0.0559,-0.0494,-0.046,-0.0387,-0.0346,-0.0312,-0.0261,-0.0218,-0.0176,-0.019,-0.0186,-0.0154,-0.0075,-0.0024,-0.001,-0.0154,-0.0153,-0.0152,-0.005,0,-0.0768,-0.079,-0.0758,-0.077,-0.0776,-0.0715,-0.0692,-0.0641,-0.0587,-0.0537,-0.0455,-0.0406,-0.0363,-0.0337,-0.0286,-0.02,-0.0158,-0.0206,-0.0069,-0.0065,-0.0023,-0.0,0.0032,0.0129,-0.0042,-0.0041,-0.004,0,-0.0807,-0.0818,-0.0845,-0.0832,-0.0827,-0.0819,-0.0774,-0.0744,-0.0655,-0.0611,-0.0539,-0.0469,-0.0383,-0.0355,-0.0211,-0.0244,-0.0171,-0.0106,-0.01,-0.0029,0.0001,0.0109,0.015,0.0309,-0.0027,-0.0028,-0.0029,0,-0.0872,-0.0875,-0.0904,-0.0899,-0.0872,-0.0867,-0.0845,-0.0772,-0.0747,-0.0654,-0.0623,-0.0507,-0.0448,-0.0337,-0.0194,-0.0204,-0.0037,-0.0031,0.0084,0.0088,0.0156,0.0164,0.0363,0.0058,0.0057,0.0057,0.0057,0,-0.0928,-0.0947,-0.0941,-0.0958,-0.0985,-0.0935,-0.0937,-0.0891,-0.0822,-0.0793,-0.0671,-0.0617,-0.0443,-0.0319,-0.0201,-0.0022,-0.0037,0.0088,0.0123,0.0138,0.0144,0.0317,0.0377,0.0061,0.006,0.0059,0.0059,0,-0.0993,-0.0988,-0.1024,-0.1019,-0.102,-0.104,-0.1014,-0.101,-0.0929,-0.0883,-0.0856,-0.0694,-0.0518,-0.0335,-0.0139,-0.0027,0.023,0.0192,0.0198,0.0233,0.0483,0.0537,0.0755,0.0806,0.0337,0.0339,0.0341,0,-0.103,-0.1057,-0.1085,-0.1117,-0.1119,-0.1135,-0.1145,-0.1079,-0.1065,-0.0928,-0.0913,-0.0726,-0.0581,-0.0255,-0.0016,0.0226,0.0322,0.038,0.037,0.0518,0.0604,0.0634,0.0661,0.0438,0.044,0.0442,0.0443,0,-0.1099,-0.1108,-0.114,-0.121,-0.1242,-0.1266,-0.1267,-0.1272,-0.1177,-0.111,-0.0985,-0.0851,-0.0501,-0.0186,0.0145,0.0284,0.0498,0.0426,0.0586,0.0711,0.075,0.0809,0.0343,0.046,0.0458,0.0457,0.0456,0.0456,-0.1144,-0.1192,-0.1239,-0.13,-0.1345,-0.1382,-0.1402,-0.1374,-0.1336,-0.1207,-0.1062,-0.0822,-0.0335,0.0155,0.0317,0.0704,0.0652,0.0813,0.0868,0.0887,0.0939,0.051,0.066,0.066,0.0659,0.0659,0.0658,0,-0.12,-0.1251,-0.1324,-0.1394,-0.1458,-0.1451,-0.1472,-0.1464,-0.1421,-0.1242,-0.1081,-0.0529,-0.0059,0.0378,0.0943,0.1143,0.1146,0.124,0.1297,0.1301,0.0943,0.095,0.1163,0.1162,0.1162,0.1162,0.1162,0.1162,-0.1231,-0.1315,-0.1356,-0.1472,-0.152,-0.1577,-0.1589,-0.1548,-0.1433,-0.1146,-0.0822,-0.0563,0.0131,0.1069,0.1565,0.1588,0.1716,0.1718,0.1774,0.1546,0.151,0.1476,0.15,0.1824,0.1825,0.2099,0.2102,0.2105]}],[{"header":{"parameterUnit":"m.s-1","parameterCategory":2,"la1":30.2991,"la2":30.254,"lo1":-89.0895,"lo2":-89.0444,"dy":0.0017,"dx":0.0017,"nx":28,"ny":28,"refTime":"2025-01-12T03:00:00:Z","depth":"2","parameterNumber":2,"parameterNumberName":"U-component_of_CURRENTS"},"data":[0,0,0,0,0,0,0,0,0,0,0,0,0,0,0,0,0,0,0,0,0,0,0,0,0,0,0,0,0,0,0,0,0,0,0,0,0,0,0,0,0,0,0,0,0,0,0,0,0,0,0,0,0,0,0,0,0,0,-0.2537,-0.2537,0,-0.2548,-0.2548,-0.2548,-0.2524,-0.2523,-0.2523,-0.2522,-0.2495,-0.2494,-0.2494,0,0,0,0,0,0,0,0,0,0,0,0,0,-0.2479,-0.248,-0.2536,-0.2537,-0.2537,-0.2548,-0.2548,-0.2548,-0.2524,-0.2523,-0.2523,-0.2522,-0.2495,-0.2494,-0.2494,0,0,0,0,0,0,0,0,0,0,0,0,0,-0.2496,-0.248,-0.2536,-0.2528,-0.2528,-0.2548,-0.2548,-0.2548,-0.2524,-0.2523,-0.2523,-0.2522,-0.2495,-0.2494,-0.2494,-0.2509,0,0,-0.2493,-0.2493,0,0,0,0,0,0,0,0,-0.2495,-0.2498,-0.2529,-0.2529,-0.2529,-0.2536,-0.2518,-0.2534,-0.2524,-0.2523,-0.2522,-0.2521,-0.2507,-0.2506,-0.2507,-0.2508,-0.2506,-0.2493,-0.2493,-0.2493,-0.2493,0,0,0,0,0,0,0,-0.2494,-0.2498,-0.2539,-0.253,-0.2529,-0.252,-0.2521,-0.2521,-0.2517,-0.2523,-0.2522,-0.2528,-0.2506,-0.2507,-0.2506,-0.2506,-0.2493,-0.2493,-0.2493,-0.2493,-0.2525,-0.2526,0,0,0,0,0,0,-0.25,-0.2497,-0.2538,-0.2539,-0.2512,-0.2522,-0.2523,-0.2532,-0.2518,-0.2516,-0.2528,-0.2526,-0.2508,-0.2506,-0.2505,-0.2527,-0.2493,-0.2493,-0.2492,-0.2524,-0.2525,-0.2526,0,0,0,0,0,0,-0.2499,-0.2504,-0.2538,-0.252,-0.2524,-0.2524,-0.2534,-0.2533,-0.2534,-0.2523,-0.2519,-0.2531,-0.2507,-0.2505,-0.251,-0.2525,-0.2492,-0.2492,-0.2523,-0.2524,-0.2526,-0.2567,0,0,0,0,0,0,-0.2497,-0.2503,-0.2509,-0.252,-0.2525,-0.2557,-0.2535,-0.2534,-0.254,-0.2538,-0.2524,-0.252,-0.2507,-0.2511,-0.251,-0.2524,-0.2492,-0.2521,-0.2523,-0.2525,-0.2564,-0.257,-0.2575,0,0,0,0,0,-0.2495,-0.2511,-0.2509,-0.2514,-0.2534,-0.2559,-0.256,-0.2555,-0.2541,-0.255,-0.2538,-0.2521,-0.2522,-0.2511,-0.251,-0.2524,-0.252,-0.2523,-0.2525,-0.2562,-0.2569,-0.2574,0,0,0,0,0,0,-0.249,-0.2511,-0.2509,-0.253,-0.2546,-0.2555,-0.2563,-0.256,-0.2558,-0.2552,-0.2533,-0.253,-0.254,-0.253,-0.2518,-0.2541,-0.2519,-0.2521,-0.2548,-0.2554,-0.2559,-0.2565,-0.2492,0,0,0,0,0,-0.2493,-0.2506,-0.2528,-0.2542,-0.2553,-0.2557,-0.2564,-0.2565,-0.2568,-0.2566,-0.2557,-0.2549,-0.2551,-0.2549,-0.2548,-0.2561,-0.2549,-0.2571,-0.2576,-0.258,-0.2585,-0.2582,-0.2586,-0.2534,-0.2534,-0.2534,0,0,-0.2494,-0.2507,-0.2513,-0.2542,-0.2549,-0.2574,-0.2559,-0.2577,-0.2593,-0.2564,-0.2576,-0.2567,-0.2559,-0.2572,-0.2576,-0.2564,-0.259,-0.2583,-0.2587,-0.2589,-0.2584,-0.2589,-0.2594,-0.2536,-0.2535,-0.2535,0,0,-0.2506,-0.2517,-0.2533,-0.2553,-0.2576,-0.2585,-0.2593,-0.2609,-0.261,-0.2627,-0.2609,-0.2611,-0.2612,-0.261,-0.2609,-0.2644,-0.2618,-0.2643,-0.2672,-0.2669,-0.2673,-0.2676,-0.267,-0.2673,-0.2645,-0.2645,-0.2645,0,-0.2505,-0.2529,-0.2542,-0.2569,-0.2585,-0.2593,-0.2618,-0.263,-0.2643,-0.2649,-0.2636,-0.2642,-0.2632,-0.2649,-0.266,-0.2655,-0.2646,-0.2647,-0.2674,-0.2678,-0.268,-0.2673,-0.2676,-0.2647,-0.2647,-0.2647,-0.2646,0,-0.253,-0.2553,-0.2567,-0.2601,-0.2623,-0.2646,-0.2672,-0.2688,-0.2688,-0.2695,-0.2711,-0.27,-0.2701,-0.2703,-0.2691,-0.2711,-0.2696,-0.2681,-0.2657,-0.2688,-0.2679,-0.268,-0.265,-0.265,-0.2649,-0.2648,0,0,-0.2512,-0.2572,-0.2575,-0.2595,-0.264,-0.2659,-0.2698,-0.2729,-0.2747,-0.2755,-0.2773,-0.2778,-0.2765,-0.2763,-0.2749,-0.275,-0.2761,-0.2726,-0.2724,-0.2716,-0.2751,-0.2724,-0.2723,-0.2747,-0.2747,-0.2748,-0.2738,0,-0.2522,-0.2571,-0.2602,-0.2645,-0.267,-0.2701,-0.2736,-0.2767,-0.2783,-0.2803,-0.2801,-0.281,-0.2791,-0.2787,-0.2787,-0.2769,-0.2767,-0.2765,-0.2726,-0.2725,-0.2693,-0.2724,-0.2479,-0.2448,-0.2739,-0.2739,-0.2739,0,-0.2526,-0.256,-0.2604,-0.2663,-0.2677,-0.2706,-0.2754,-0.2787,-0.2828,-0.2841,-0.2854,-0.2849,-0.2859,-0.2831,-0.2819,-0.2818,-0.279,-0.2772,-0.2771,-0.2732,-0.27,-0.2464,-0.244,-0.2742,-0.2741,-0.2741,-0.2741,0,-0.2486,-0.2555,-0.2585,-0.2606,-0.268,-0.2703,-0.2737,-0.2789,-0.2817,-0.2857,-0.2876,-0.2886,-0.2885,-0.2864,-0.2835,-0.2824,-0.2817,-0.2794,-0.2744,-0.2741,-0.2519,-0.2496,-0.2781,-0.2781,-0.2781,-0.2781,-0.2781,0,-0.2473,-0.2494,-0.2568,-0.2583,-0.2616,-0.268,-0.2717,-0.2756,-0.2816,-0.2846,-0.288,-0.2898,-0.2892,-0.2887,-0.2853,-0.281,-0.2829,-0.2757,-0.2741,-0.2528,-0.2508,-0.2749,-0.2746,-0.2781,-0.2781,-0.2781,-0.2781,0,-0.2411,-0.2465,-0.2497,-0.2574,-0.2594,-0.2612,-0.2692,-0.2721,-0.2792,-0.2833,-0.2846,-0.2904,-0.2904,-0.2896,-0.2867,-0.2827,-0.2791,-0.2766,-0.2525,-0.2481,-0.2711,-0.271,-0.271,-0.2709,-0.2708,-0.2707,-0.2707,0,-0.238,-0.2391,-0.2462,-0.2476,-0.2505,-0.2551,-0.2582,-0.2679,-0.2716,-0.2827,-0.2836,-0.2878,-0.2885,-0.2857,-0.278,-0.2722,-0.2773,-0.247,-0.2413,-0.2722,-0.2706,-0.2706,-0.2706,-0.2125,-0.212,-0.2116,-0.2112,0,-0.2303,-0.2328,-0.2351,-0.2383,-0.2414,-0.2454,-0.2511,-0.2545,-0.2662,-0.271,-0.277,-0.2794,-0.2792,-0.263,-0.2578,-0.2502,-0.2465,-0.2385,-0.2743,-0.2206,-0.2176,-0.216,-0.2177,-0.2074,-0.2077,-0.208,-0.2082,-0.2084,-0.2221,-0.2215,-0.2243,-0.226,-0.2297,-0.2323,-0.2313,-0.2398,-0.244,-0.2473,-0.2597,-0.2551,-0.2522,-0.2333,-0.2223,-0.2123,-0.2296,-0.2148,-0.2158,-0.2173,-0.2132,-0.2105,-0.1981,-0.1984,-0.1987,-0.1989,-0.1991,0,-0.2099,-0.2106,-0.2118,-0.2128,-0.2109,-0.2181,-0.2229,-0.2185,-0.2182,-0.2254,-0.227,-0.2036,-0.195,-0.1937,-0.174,-0.1721,-0.1662,-0.1625,-0.1523,-0.1563,-0.1598,-0.1524,-0.1213,-0.1211,-0.1209,-0.1207,0,0,-0.2034,-0.1989,-0.1995,-0.1917,-0.1929,-0.1853,-0.1848,-0.181,-0.1813,-0.1748,-0.1721,-0.1851,-0.1896,-0.1556,-0.1469,-0.1318,-0.1424,-0.1245,-0.1865,-0.1785,-0.1817,-0.1892,-0.1824,0,0,0,0,0]},{"header":{"parameterUnit":"m.s-1","parameterCategory":2,"la1":30.2991,"la2":30.254,"lo1":-89.0895,"lo2":-89.0444,"dy":0.0017,"dx":0.0017,"nx":28,"ny":28,"refTime":"2025-01-12T03:00:00:Z","depth":"2","parameterNumber":3,"parameterNumberName":"V-component_of_CURRENTS"},"data":[0,0,0,0,0,0,0,0,0,0,0,0,0,0,0,0,0,0,0,0,0,0,0,0,0,0,0,0,0,0,0,0,0,0,0,0,0,0,0,0,0,0,0,0,0,0,0,0,0,0,0,0,0,0,0,0,0,0,-0.0378,-0.0377,0,-0.0282,-0.0281,-0.028,-0.0221,-0.0221,-0.0221,-0.0221,-0.0113,-0.011,-0.0107,0,0,0,0,0,0,0,0,0,0,0,0,0,-0.0455,-0.0455,-0.0378,-0.0377,-0.0376,-0.0282,-0.0281,-0.0279,-0.0221,-0.0221,-0.0221,-0.0221,-0.0114,-0.011,-0.0107,0,0,0,0,0,0,0,0,0,0,0,0,0,-0.0396,-0.0454,-0.0378,-0.0337,-0.0332,-0.0282,-0.0281,-0.0279,-0.0221,-0.0221,-0.0221,-0.022,-0.0115,-0.0111,-0.0107,-0.0087,0,0,-0.0094,-0.0093,0,0,0,0,0,0,0,0,-0.0399,-0.0393,-0.0344,-0.0339,-0.0334,-0.0264,-0.0268,-0.0215,-0.0221,-0.0262,-0.0221,-0.022,-0.0163,-0.0155,-0.0136,-0.0082,-0.0078,-0.0094,-0.0092,-0.009,-0.0089,0,0,0,0,0,0,0,-0.0404,-0.0397,-0.0339,-0.0343,-0.0337,-0.0303,-0.0295,-0.0258,-0.0214,-0.0258,-0.0254,-0.0245,-0.016,-0.014,-0.0133,-0.0076,-0.0094,-0.0091,-0.0088,-0.0086,0.0003,0.0003,0,0,0,0,0,0,-0.0421,-0.0401,-0.0342,-0.0336,-0.0368,-0.0303,-0.0293,-0.0286,-0.0215,-0.0204,-0.0246,-0.0243,-0.0147,-0.0138,-0.0129,-0.0104,-0.009,-0.0086,-0.0084,0.0003,0.0003,0.0003,0,0,0,0,0,0,-0.0423,-0.0417,-0.0346,-0.0367,-0.0356,-0.0302,-0.0294,-0.0284,-0.0266,-0.0206,-0.0194,-0.0239,-0.0147,-0.0135,-0.0098,-0.0099,-0.0084,-0.0081,0.0003,0.0003,0.0003,-0.0051,0,0,0,0,0,0,-0.0426,-0.0418,-0.0421,-0.0368,-0.0355,-0.0323,-0.0294,-0.0283,-0.0262,-0.0257,-0.0196,-0.0185,-0.0146,-0.0104,-0.0094,-0.0093,-0.0077,0.0003,0.0003,0.0003,-0.005,-0.0053,-0.0057,0,0,0,0,0,-0.0429,-0.0435,-0.0422,-0.0415,-0.0361,-0.0324,-0.0314,-0.0274,-0.0262,-0.0256,-0.0214,-0.0187,-0.0098,-0.0101,-0.0089,-0.0087,0.0003,0.0003,0.0003,-0.0048,-0.0053,-0.0057,0,0,0,0,0,0,-0.0468,-0.0428,-0.0413,-0.0406,-0.0372,-0.0315,-0.0307,-0.0281,-0.0242,-0.0241,-0.0185,-0.0171,-0.014,-0.0107,-0.0112,-0.0062,-0.0044,-0.0042,-0.0087,-0.0091,-0.0094,-0.0108,-0.0074,0,0,0,0,0,-0.0481,-0.0476,-0.0429,-0.0425,-0.0411,-0.0362,-0.0344,-0.0317,-0.0275,-0.0258,-0.0214,-0.0169,-0.013,-0.0107,-0.0069,-0.004,-0.0006,-0.0032,-0.0035,-0.0038,-0.0041,0.0007,0.0008,0.0002,0.0002,0.0002,0,0,-0.0495,-0.0473,-0.047,-0.0434,-0.0405,-0.039,-0.035,-0.0328,-0.0312,-0.0253,-0.0222,-0.0181,-0.0127,-0.0094,-0.0077,-0.0066,-0.0019,-0.0039,-0.0042,-0.0043,0.0007,0.0008,0.0008,0.0002,0.0002,0.0002,0,0,-0.0525,-0.0504,-0.0511,-0.0486,-0.045,-0.0416,-0.0415,-0.0362,-0.0336,-0.0302,-0.0256,-0.0216,-0.0158,-0.0114,-0.0086,-0.0086,-0.0042,-0.0077,-0.0101,-0.0054,-0.0053,-0.0052,-0.0012,-0.0006,-0.0076,-0.0076,-0.0076,0,-0.0546,-0.0546,-0.0507,-0.0504,-0.049,-0.0434,-0.0435,-0.0397,-0.0339,-0.0317,-0.0302,-0.0209,-0.0166,-0.0116,-0.0117,-0.0093,-0.0064,-0.009,-0.0059,-0.0057,-0.0055,-0.0014,-0.0007,-0.0079,-0.0078,-0.0078,-0.0078,0,-0.0577,-0.0576,-0.0578,-0.0558,-0.0535,-0.0527,-0.0473,-0.0447,-0.0412,-0.0369,-0.0317,-0.0252,-0.0196,-0.0176,-0.0146,-0.0108,-0.0091,-0.0073,-0.0051,-0.0058,-0.0014,-0.0006,-0.0083,-0.0082,-0.0081,-0.008,0,0,-0.0625,-0.0606,-0.0607,-0.061,-0.0564,-0.0551,-0.0522,-0.0478,-0.046,-0.0397,-0.0365,-0.0294,-0.0255,-0.0221,-0.0171,-0.0129,-0.0089,-0.0102,-0.0098,-0.0067,0.0009,0.0057,0.007,-0.0067,-0.0066,-0.0065,0.0033,0,-0.0662,-0.0685,-0.0653,-0.0665,-0.0671,-0.0611,-0.0589,-0.054,-0.0488,-0.044,-0.036,-0.0313,-0.0271,-0.0247,-0.0197,-0.0112,-0.0071,-0.0118,0.0016,0.002,0.0059,0.008,0.0057,0.0146,0.0041,0.0042,0.0043,0,-0.0702,-0.0713,-0.0739,-0.0726,-0.0721,-0.0714,-0.0671,-0.0642,-0.0555,-0.0513,-0.0443,-0.0375,-0.0292,-0.0264,-0.0124,-0.0156,-0.0085,-0.0021,-0.0016,0.0053,0.0082,0.0138,0.0164,0.0056,0.0055,0.0054,0.0054,0,-0.0766,-0.0769,-0.0798,-0.0793,-0.0766,-0.0762,-0.0741,-0.067,-0.0646,-0.0557,-0.0527,-0.0414,-0.0357,-0.0249,-0.0109,-0.0118,0.0045,0.0052,0.0162,0.0166,0.0186,0.019,0.0138,0.0138,0.0138,0.0138,0.0137,0,-0.0821,-0.0841,-0.0835,-0.0851,-0.0879,-0.083,-0.0834,-0.0789,-0.0722,-0.0694,-0.0575,-0.0523,-0.0352,-0.0231,-0.0116,0.0058,0.0045,0.0165,0.02,0.0167,0.0168,0.0121,0.0118,0.0141,0.0141,0.014,0.0139,0,-0.0887,-0.0882,-0.0917,-0.0913,-0.0914,-0.0935,-0.091,-0.0907,-0.0829,-0.0785,-0.0759,-0.0599,-0.0429,-0.025,-0.0057,0.0052,0.0208,0.0265,0.0217,0.0244,0.0295,0.0288,0.0399,0.0402,0.0404,0.0406,0.0408,0,-0.0923,-0.0951,-0.0979,-0.101,-0.1013,-0.103,-0.1041,-0.0976,-0.0962,-0.0829,-0.0814,-0.0633,-0.0491,-0.0174,0.0053,0.0287,0.0269,0.0388,0.0372,0.0303,0.0325,0.0314,0.0304,0.0374,0.0375,0.0376,0.0376,0,-0.0992,-0.1001,-0.1033,-0.1103,-0.1135,-0.1158,-0.1161,-0.1165,-0.1072,-0.1006,-0.0884,-0.0754,-0.042,-0.0143,0.0175,0.0302,0.0355,0.0416,0.037,0.0312,0.0287,0.0306,0.0295,0.0385,0.0384,0.0383,0.0383,0.0383,-0.1038,-0.1084,-0.1131,-0.1193,-0.1237,-0.1273,-0.1292,-0.1258,-0.1219,-0.108,-0.095,-0.0712,-0.0427,0.0041,0.0255,0.0458,0.0453,0.0497,0.049,0.0484,0.0464,0.0445,0.0568,0.0568,0.0568,0.0569,0.0569,0,-0.1089,-0.1143,-0.1215,-0.1284,-0.1343,-0.1342,-0.1361,-0.1332,-0.128,-0.1101,-0.0938,-0.0599,-0.0267,0.0023,0.0359,0.0554,0.0522,0.0573,0.0493,0.0485,0.0478,0.0454,0.0557,0.0558,0.0558,0.0558,0,0,-0.1119,-0.12,-0.1239,-0.1352,-0.1404,-0.145,-0.1461,-0.138,-0.1253,-0.106,-0.0863,-0.0598,-0.0244,-0.0013,0.0237,0.0406,0.0386,0.0416,0.0408,0.0276,0.0266,0.0424,0.0378,0,0,0,0,0]}],[{"header":{"parameterUnit":"m.s-1","parameterCategory":2,"la1":30.2991,"la2":30.254,"lo1":-89.0895,"lo2":-89.0444,"dy":0.0017,"dx":0.0017,"nx":28,"ny":28,"refTime":"2025-01-12T03:00:00:Z","depth":"4","parameterNumber":2,"parameterNumberName":"U-component_of_CURRENTS"},"data":[0,0,0,0,0,0,0,0,0,0,0,0,0,0,0,0,0,0,0,0,0,0,0,0,0,0,0,0,0,0,0,0,0,0,0,0,0,0,0,0,0,0,0,0,0,0,0,0,0,0,0,0,0,0,0,0,0,0,-0.1687,-0.1688,0,-0.1747,-0.1748,-0.1749,-0.1789,-0.179,-0.179,-0.179,-0.1851,-0.1852,-0.1853,0,0,0,0,0,0,0,0,0,0,0,0,0,-0.1604,-0.1606,-0.1687,-0.1688,-0.1689,-0.1747,-0.1748,-0.1749,-0.1789,-0.179,-0.179,-0.1791,-0.185,-0.1852,-0.1853,0,0,0,0,0,0,0,0,0,0,0,0,0,-0.1648,-0.1606,-0.1687,-0.1718,-0.1721,-0.1747,-0.1748,-0.1749,-0.1789,-0.179,-0.179,-0.1791,-0.185,-0.1851,-0.1853,-0.1851,0,0,-0.1859,-0.1859,0,0,0,0,0,0,0,0,-0.1646,-0.1651,-0.1712,-0.1716,-0.1719,-0.1763,-0.1741,-0.1784,-0.1789,-0.1761,-0.179,-0.1791,-0.1822,-0.1826,-0.1833,-0.1853,-0.1856,-0.1859,-0.186,-0.1861,-0.1861,0,0,0,0,0,0,0,-0.1643,-0.1649,-0.1709,-0.1713,-0.1718,-0.1727,-0.1734,-0.1749,-0.1786,-0.1764,-0.1767,-0.1776,-0.1824,-0.1831,-0.1835,-0.1857,-0.1859,-0.186,-0.1861,-0.1862,-0.1962,-0.1963,0,0,0,0,0,0,-0.1638,-0.1646,-0.1707,-0.1711,-0.1686,-0.1728,-0.1736,-0.1747,-0.1786,-0.1793,-0.1776,-0.1778,-0.1828,-0.1833,-0.1837,-0.1915,-0.1861,-0.1862,-0.1863,-0.196,-0.1962,-0.1964,0,0,0,0,0,0,-0.1636,-0.1643,-0.1705,-0.1681,-0.169,-0.1729,-0.1741,-0.1748,-0.1786,-0.1795,-0.1802,-0.1811,-0.1829,-0.1835,-0.1881,-0.1914,-0.1863,-0.1865,-0.1958,-0.1961,-0.1963,-0.2019,0,0,0,0,0,0,-0.1634,-0.1642,-0.1662,-0.1681,-0.1691,-0.1743,-0.1741,-0.1749,-0.179,-0.1794,-0.1827,-0.1832,-0.183,-0.1878,-0.1882,-0.1916,-0.1866,-0.1956,-0.1959,-0.1962,-0.2015,-0.2023,-0.203,0,0,0,0,0,-0.1631,-0.1652,-0.1663,-0.1671,-0.1713,-0.1744,-0.1751,-0.1779,-0.1791,-0.1815,-0.1839,-0.1832,-0.19,-0.1881,-0.1885,-0.192,-0.1955,-0.1959,-0.1962,-0.2012,-0.2021,-0.2029,0,0,0,0,0,0,-0.163,-0.1659,-0.1671,-0.1702,-0.1732,-0.1752,-0.1781,-0.1797,-0.1834,-0.1847,-0.1852,-0.1859,-0.191,-0.1909,-0.1888,-0.1958,-0.1926,-0.1931,-0.1963,-0.1972,-0.1979,-0.1976,-0.1868,0,0,0,0,0,-0.1638,-0.1662,-0.1689,-0.1718,-0.1735,-0.1763,-0.1785,-0.1805,-0.1834,-0.1852,-0.1876,-0.1901,-0.1923,-0.1944,-0.1961,-0.2001,-0.1985,-0.2027,-0.2034,-0.204,-0.2042,-0.2045,-0.2052,-0.1975,-0.1975,-0.1975,0,0,-0.1646,-0.1666,-0.1681,-0.172,-0.1745,-0.1779,-0.1779,-0.1823,-0.1858,-0.1852,-0.1916,-0.193,-0.1939,-0.1984,-0.2007,-0.1992,-0.2056,-0.2045,-0.205,-0.2048,-0.2049,-0.2056,-0.2063,-0.1978,-0.1977,-0.1977,0,0,-0.1665,-0.1694,-0.1719,-0.1748,-0.1793,-0.1811,-0.1831,-0.1872,-0.1902,-0.1955,-0.196,-0.1995,-0.2037,-0.2048,-0.2056,-0.2115,-0.2092,-0.2128,-0.2165,-0.2169,-0.2175,-0.218,-0.2172,-0.2175,-0.2133,-0.2133,-0.2133,0,-0.1678,-0.1709,-0.1733,-0.1766,-0.1796,-0.1829,-0.1866,-0.19,-0.1954,-0.198,-0.1988,-0.2051,-0.2064,-0.2103,-0.2127,-0.2131,-0.2125,-0.213,-0.2177,-0.2182,-0.2186,-0.2176,-0.2179,-0.2137,-0.2136,-0.2136,-0.2136,0,-0.1704,-0.1746,-0.1766,-0.1816,-0.1853,-0.1893,-0.1937,-0.1984,-0.2023,-0.2049,-0.2111,-0.2128,-0.216,-0.2176,-0.2172,-0.2214,-0.2197,-0.2183,-0.2151,-0.2197,-0.2184,-0.2186,-0.2141,-0.214,-0.2139,-0.2138,0,0,-0.1686,-0.1768,-0.178,-0.1814,-0.1885,-0.1913,-0.1981,-0.2039,-0.2081,-0.2135,-0.2182,-0.2227,-0.2236,-0.2245,-0.2248,-0.2258,-0.2285,-0.2241,-0.224,-0.2226,-0.2289,-0.2148,-0.2137,-0.2281,-0.2281,-0.2282,-0.2268,0,-0.1702,-0.1767,-0.1808,-0.188,-0.1916,-0.1974,-0.2031,-0.209,-0.214,-0.2194,-0.2221,-0.2266,-0.2262,-0.2283,-0.2295,-0.2288,-0.2295,-0.229,-0.2253,-0.2251,-0.2115,-0.2136,-0.2285,-0.227,-0.227,-0.2271,-0.2271,0,-0.1703,-0.175,-0.1821,-0.191,-0.1933,-0.1987,-0.2076,-0.2131,-0.2207,-0.2246,-0.2292,-0.231,-0.2347,-0.2331,-0.2341,-0.234,-0.2323,-0.2311,-0.2309,-0.2157,-0.2114,-0.2215,-0.2275,-0.2275,-0.2274,-0.2274,-0.2274,0,-0.1654,-0.1754,-0.1812,-0.1844,-0.1951,-0.2003,-0.2064,-0.2149,-0.2195,-0.2278,-0.2312,-0.2354,-0.2378,-0.2372,-0.2357,-0.2355,-0.2349,-0.2337,-0.2192,-0.2183,-0.2289,-0.2284,-0.2336,-0.2336,-0.2336,-0.2336,-0.2336,0,-0.1629,-0.1679,-0.1802,-0.1832,-0.1904,-0.199,-0.2069,-0.2133,-0.2221,-0.2261,-0.2333,-0.2351,-0.2391,-0.2391,-0.2369,-0.2279,-0.2357,-0.2194,-0.2167,-0.2314,-0.2312,-0.229,-0.2285,-0.2336,-0.2336,-0.2336,-0.2336,0,-0.1554,-0.1639,-0.1709,-0.1838,-0.1882,-0.1932,-0.2061,-0.2104,-0.2207,-0.2258,-0.2285,-0.2358,-0.2351,-0.2365,-0.2352,-0.2274,-0.2218,-0.2169,-0.2326,-0.2309,-0.2047,-0.2045,-0.1996,-0.1991,-0.1986,-0.1983,-0.198,0,-0.1515,-0.1547,-0.1691,-0.1733,-0.1797,-0.1892,-0.1946,-0.2074,-0.2112,-0.2234,-0.2233,-0.2282,-0.2307,-0.2169,-0.2206,-0.2143,-0.2118,-0.2076,-0.2058,-0.2031,-0.2011,-0.2016,-0.2021,-0.1973,-0.1972,-0.197,-0.1969,0,-0.1431,-0.15,-0.1555,-0.1641,-0.1715,-0.1785,-0.1874,-0.1888,-0.2019,-0.2137,-0.2118,-0.2103,-0.2092,-0.2064,-0.2031,-0.1989,-0.2094,-0.203,-0.2038,-0.2021,-0.2003,-0.1988,-0.1997,-0.1954,-0.1956,-0.1958,-0.1959,0,-0.1363,-0.138,-0.1461,-0.1519,-0.1605,-0.1635,-0.171,-0.1751,-0.1805,-0.1946,-0.1934,-0.1989,-0.207,-0.1984,-0.1954,-0.19,-0.1866,-0.1797,-0.1817,-0.1834,-0.1785,-0.1739,-0.1578,0,0,0,0,0,-0.1281,-0.1282,-0.1329,-0.1384,-0.1463,-0.1511,-0.1632,-0.1711,-0.1842,-0.1778,-0.1852,-0.1834,-0.1791,-0.182,-0.1725,-0.1871,-0.187,-0.1753,-0.1802,-0.187,-0.1888,-0.1844,0,0,0,0,0,0,-0.1225,-0.126,-0.1276,-0.1248,-0.1259,-0.1328,-0.1399,-0.1501,-0.1479,-0.162,-0.1602,-0.171,-0.1691,-0.1806,-0.168,-0.1688,-0.1678,-0.18,-0.1795,-0.186,-0.1876,-0.189,-0.1852,0,0,0,0,0]},{"header":{"parameterUnit":"m.s-1","parameterCategory":2,"la1":30.2991,"la2":30.254,"lo1":-89.0895,"lo2":-89.0444,"dy":0.0017,"dx":0.0017,"nx":28,"ny":28,"refTime":"2025-01-12T03:00:00:Z","depth":"4","parameterNumber":3,"parameterNumberName":"V-component_of_CURRENTS"},"data":[0,0,0,0,0,0,0,0,0,0,0,0,0,0,0,0,0,0,0,0,0,0,0,0,0,0,0,0,0,0,0,0,0,0,0,0,0,0,0,0,0,0,0,0,0,0,0,0,0,0,0,0,0,0,0,0,0,0,-0.0153,-0.0153,0,-0.0094,-0.0093,-0.0092,-0.0053,-0.0053,-0.0053,-0.0053,0.0028,0.0029,0.0031,0,0,0,0,0,0,0,0,0,0,0,0,0,-0.019,-0.019,-0.0153,-0.0153,-0.0152,-0.0094,-0.0093,-0.0092,-0.0053,-0.0053,-0.0053,-0.0053,0.0027,0.0029,0.0032,0,0,0,0,0,0,0,0,0,0,0,0,0,-0.0156,-0.019,-0.0153,-0.0126,-0.0123,-0.0094,-0.0093,-0.0092,-0.0053,-0.0053,-0.0053,-0.0053,0.0026,0.0029,0.0032,0.0045,0,0,0.0041,0.0042,0,0,0,0,0,0,0,0,-0.0158,-0.0154,-0.0131,-0.0128,-0.0125,-0.0082,-0.0077,-0.0045,-0.0053,-0.0079,-0.0053,-0.0053,-0.0008,-0.0002,0.001,0.0049,0.0053,0.0041,0.0043,0.0044,0.0045,0,0,0,0,0,0,0,-0.016,-0.0156,-0.0129,-0.013,-0.0127,-0.0103,-0.0098,-0.007,-0.0044,-0.0077,-0.0074,-0.0069,-0.0006,0.0007,0.0012,0.0054,0.0041,0.0044,0.0046,0.0047,0.0111,0.011,0,0,0,0,0,0,-0.0172,-0.0159,-0.0131,-0.0127,-0.0142,-0.0102,-0.0097,-0.0095,-0.0045,-0.0038,-0.0069,-0.0067,0.0001,0.0008,0.0015,0.003,0.0044,0.0047,0.0049,0.0111,0.0111,0.011,0,0,0,0,0,0,-0.0173,-0.017,-0.0133,-0.0142,-0.0136,-0.0103,-0.01,-0.0094,-0.0084,-0.004,-0.0032,-0.0067,0.0002,0.0011,0.0037,0.0034,0.0048,0.0051,0.0111,0.0111,0.011,0.0064,0,0,0,0,0,0,-0.0175,-0.0171,-0.0177,-0.0143,-0.0136,-0.0122,-0.01,-0.0093,-0.0082,-0.0079,-0.0035,-0.0027,0.0003,0.0032,0.004,0.0038,0.0054,0.0111,0.0111,0.0111,0.0065,0.0062,0.0059,0,0,0,0,0,-0.0176,-0.0184,-0.0178,-0.0174,-0.0144,-0.0122,-0.0117,-0.0091,-0.0083,-0.0081,-0.005,-0.0029,0.0036,0.0034,0.0043,0.0043,0.0111,0.0111,0.0111,0.0067,0.0062,0.0059,0,0,0,0,0,0,-0.0201,-0.018,-0.0172,-0.0173,-0.0153,-0.0116,-0.0115,-0.0097,-0.0072,-0.0071,-0.0028,-0.0018,0.0003,0.0029,0.0025,0.0061,0.0077,0.0078,0.004,0.0037,0.0034,0.0022,0.0056,0,0,0,0,0,-0.0211,-0.0214,-0.0186,-0.0189,-0.0181,-0.015,-0.014,-0.0123,-0.0095,-0.0084,-0.0052,-0.0019,0.001,0.0027,0.0055,0.0075,0.0103,0.008,0.0077,0.0074,0.0071,0.0112,0.0112,0.011,0.011,0.011,0,0,-0.0222,-0.0212,-0.0213,-0.0195,-0.0178,-0.0172,-0.0144,-0.0134,-0.0126,-0.008,-0.0062,-0.0031,0.0012,0.0034,0.0046,0.0055,0.0089,0.0074,0.0071,0.007,0.0112,0.0112,0.0113,0.011,0.011,0.011,0,0,-0.0247,-0.0237,-0.0248,-0.0234,-0.0216,-0.0195,-0.0196,-0.0163,-0.0146,-0.0126,-0.0091,-0.0061,-0.002,0.0014,0.0036,0.0032,0.0069,0.0039,0.0018,0.0057,0.0058,0.0059,0.0092,0.0096,0.004,0.004,0.004,0,-0.0263,-0.027,-0.0247,-0.0251,-0.0245,-0.0209,-0.0216,-0.0192,-0.0154,-0.0141,-0.0129,-0.0061,-0.0028,0.0009,0.0007,0.0025,0.0051,0.0028,0.0053,0.0054,0.0056,0.009,0.0095,0.0037,0.0038,0.0038,0.0038,0,-0.029,-0.0297,-0.0302,-0.0297,-0.0286,-0.0287,-0.0253,-0.0238,-0.0216,-0.0187,-0.0151,-0.0101,-0.006,-0.0044,-0.0019,0.001,0.0025,0.0042,0.006,0.0053,0.0089,0.0096,0.0034,0.0035,0.0036,0.0036,0,0,-0.0321,-0.0324,-0.0326,-0.0336,-0.0312,-0.0308,-0.0294,-0.0269,-0.0261,-0.0217,-0.0197,-0.0143,-0.0113,-0.0086,-0.0046,-0.001,0.0023,0.0015,0.0018,0.0043,0.0106,0.0108,0.0116,0.0044,0.0044,0.0045,0.0125,0,-0.0351,-0.038,-0.0365,-0.0387,-0.0397,-0.0362,-0.0353,-0.0324,-0.0289,-0.0259,-0.0196,-0.0164,-0.0128,-0.0111,-0.0068,0.0003,0.0038,-0.0001,0.0113,0.0116,0.0116,0.0122,0.0048,0.013,0.0131,0.0132,0.0133,0,-0.038,-0.0398,-0.0431,-0.0439,-0.0439,-0.0445,-0.0426,-0.0411,-0.0353,-0.0324,-0.0273,-0.022,-0.0154,-0.0129,-0.0011,-0.0037,0.0024,0.0079,0.0084,0.0107,0.013,0.0141,0.0145,0.0144,0.0143,0.0142,0.0141,0,-0.0419,-0.0441,-0.0475,-0.0477,-0.0477,-0.0485,-0.048,-0.0437,-0.0427,-0.0366,-0.0346,-0.0257,-0.0211,-0.012,-0.0003,-0.0008,0.0128,0.0137,0.0198,0.0199,0.0194,0.0192,0.0211,0.0211,0.0211,0.0211,0.021,0,-0.0451,-0.0478,-0.0502,-0.0521,-0.056,-0.0537,-0.0557,-0.0532,-0.0493,-0.0478,-0.0389,-0.035,-0.0207,-0.0108,-0.001,0.0117,0.0125,0.0196,0.0221,0.0171,0.0167,0.0198,0.0195,0.0214,0.0213,0.0212,0.0212,0,-0.0482,-0.0498,-0.0542,-0.0568,-0.0582,-0.061,-0.0623,-0.0628,-0.0582,-0.0556,-0.0538,-0.0414,-0.0279,-0.0133,0.003,0.0105,0.0227,0.0267,0.0202,0.0223,0.0271,0.0265,0.0338,0.0339,0.034,0.034,0.0341,0,-0.0497,-0.0526,-0.0588,-0.0627,-0.0646,-0.0684,-0.0707,-0.068,-0.0675,-0.0591,-0.0577,-0.0443,-0.0346,-0.0108,0.0038,0.0234,0.0256,0.0312,0.029,0.0267,0.0285,0.0278,0.0272,0.0342,0.0342,0.0342,0.0342,0,-0.0525,-0.0554,-0.0593,-0.0678,-0.0727,-0.0769,-0.0794,-0.0795,-0.0745,-0.0709,-0.0595,-0.0455,-0.0296,-0.0107,0.0051,0.0186,0.0274,0.0319,0.0318,0.0298,0.0273,0.0288,0.0281,0.0344,0.0344,0.0344,0.0344,0,-0.0543,-0.0583,-0.0645,-0.0714,-0.0784,-0.0826,-0.0836,-0.0812,-0.0793,-0.0688,-0.0653,-0.0465,-0.0351,-0.0132,0.0011,0.0152,0.0179,0.0207,0.0213,0.0212,0.0152,0.01,0.0142,0,0,0,0,0,-0.055,-0.0599,-0.0674,-0.0746,-0.0818,-0.0852,-0.0878,-0.087,-0.0824,-0.0751,-0.0695,-0.054,-0.0294,-0.0184,-0.0043,0.0006,0.0188,0.0173,0.0219,0.0357,0.0354,0.0306,0,0,0,0,0,0,-0.0556,-0.0628,-0.0671,-0.0757,-0.081,-0.0874,-0.0892,-0.0863,-0.081,-0.0744,-0.0612,-0.052,-0.0284,-0.0372,-0.0043,0.0001,0.0045,0.0295,0.0298,0.0359,0.0356,0.0354,0.0303,0,0,0,0,0]}]]